Sacramento, CA

8:48 PM PDT on September 20, 2017 (GMT -0700)
Sacramento Executive

Weather History for KSAC - November, 2010

Change the Weather History Date:

Tuesday, November 30, 2010

  Actual Average Record
Temperature  
Mean Temperature 44 °F -  
Max Temperature 54 °F 58 °F 72 °F (1995)
Min Temperature 34 °F 40 °F 28 °F (1954)
Degree Days  
Heating Degree Days 21    
Month to date heating degree days 370  
Cooling Degree Days 0    
Month to date cooling degree days 2  
Year to date cooling degree days 1079  
Moisture  
Dew Point 36 °F    
Average Humidity 73    
Maximum Humidity 96    
Minimum Humidity 50    
Precipitation  
Precipitation 0.00 in 0.09 in 1.68 in (2012)
Month to date precipitation 2.39 2.08  
Year to date precipitation 17.29 15.27  
Since 1 July precipitation 3.83  
Sea Level Pressure  
Sea Level Pressure 30.42 in    
Wind  
Wind Speed 1 mph (NW)    
Max Wind Speed 7 mph    
Max Gust Speed 8 mph    
Visibility 9 miles    
Events      
T = Trace of Precipitation, MM = Missing Value Source: NWS Daily Summary

Daily Weather History Graph

Daily Weather History Graph

Search for Another Location

Airport or City:

Trip Planner

Search our weather history database for the weather conditions in past years. The results will help you decide how hot, cold, wet, or windy it might be!

Date:

Astronomy

Nov. 30, 2010 Rise Set
Actual Time 7:03 AM PST 4:45 PM PST
Civil Twilight 6:34 AM PST 5:14 PM PST
Nautical Twilight 6:01 AM PST 5:47 PM PST
Astronomical Twilight 5:29 AM PST 6:19 PM PST
Moon 1:29 AM PST (11/30) 1:15 PM PST (11/30)
Length of Visible Light 10h 40m
Length of Day
9h 41m
Waning Crescent, 28% of the Moon is Illuminated
Nov 30
Waning Crescent
Dec 5
New
Dec 13
First Quarter
Dec 21
Full
Dec 27
Last Quarter

Hourly Weather History & Observations

Time (PST) Temp. Windchill Dew Point Humidity Pressure Visibility Wind Dir Wind Speed Gust Speed Precip Events Conditions
12:53 AM 35.6 °F - 33.8 °F 93% 30.47 in 10.0 mi Calm Calm - N/A   Clear
1:53 AM 37.0 °F - 33.1 °F 86% 30.48 in 10.0 mi Calm Calm - N/A   Clear
2:53 AM 35.1 °F - 32.0 °F 89% 30.47 in 10.0 mi Calm Calm - N/A   Clear
3:53 AM 35.6 °F - 32.0 °F 87% 30.47 in 10.0 mi Calm Calm - N/A   Clear
4:53 AM 34.0 °F - 32.0 °F 92% 30.47 in 8.0 mi Calm Calm - N/A   Clear
5:53 AM 35.1 °F - 33.1 °F 92% 30.47 in 9.0 mi Calm Calm - N/A   Clear
6:53 AM 35.1 °F - 32.0 °F 89% 30.48 in 9.0 mi Calm Calm - N/A   Clear
7:53 AM 37.0 °F - 34.0 °F 89% 30.48 in 7.0 mi Calm Calm - N/A   Clear
8:53 AM 41.0 °F 39.0 °F 36.0 °F 82% 30.49 in 10.0 mi NNW 3.5 mph - N/A   Clear
9:53 AM 44.1 °F 42.5 °F 36.0 °F 73% 30.49 in 10.0 mi NNW 3.5 mph - N/A   Clear
10:53 AM 48.0 °F - 37.0 °F 66% 30.47 in 10.0 mi Variable 3.5 mph - N/A   Clear
11:53 AM 50.0 °F - 37.0 °F 61% 30.44 in 10.0 mi Calm Calm - N/A   Clear
12:53 PM 51.1 °F - 37.0 °F 59% 30.42 in 10.0 mi NW 3.5 mph - N/A   Clear
1:53 PM 53.1 °F - 37.0 °F 55% 30.40 in 10.0 mi Calm Calm - N/A   Clear
2:53 PM 53.1 °F - 35.1 °F 50% 30.39 in 10.0 mi Calm Calm - N/A   Clear
3:53 PM 52.0 °F - 39.0 °F 61% 30.38 in 10.0 mi Calm Calm - N/A   Clear
4:53 PM 50.0 °F - 39.9 °F 68% 30.37 in 10.0 mi Calm Calm - N/A   Clear
5:53 PM 48.0 °F - 39.0 °F 71% 30.35 in 10.0 mi WSW 3.5 mph - N/A   Clear
6:53 PM 46.9 °F - 39.0 °F 74% 30.35 in 10.0 mi WNW 5.8 mph - N/A   Clear
7:53 PM 45.0 °F 42.6 °F 37.9 °F 76% 30.35 in 10.0 mi NW 4.6 mph - N/A   Clear
8:53 PM 42.1 °F - 37.9 °F 85% 30.35 in 9.0 mi Calm Calm - N/A   Clear
9:53 PM 39.0 °F - 36.0 °F 89% 30.36 in 7.0 mi Calm Calm - N/A   Clear
10:53 PM 37.9 °F - 36.0 °F 93% 30.35 in 4.0 mi Calm Calm - N/A   Clear
11:53 PM 37.0 °F - 35.1 °F 93% 30.34 in 5.0 mi Calm Calm - N/A   Clear